Location: Rodson Ranch
(38.7188°N, 119.3202°W)
Time: 14:39:17
(UTC+00:00)

Daily predictions for brighter satellites

Satellite Brightness Start Highest point End
(mag) Time Altitude Azimuth Time Altitude Azimuth Time Altitude Azimuth
Cosmos 44 Rocket 4.4 12:10:28 34° S 12:10:28 34° S 12:13:29 10° SSE
ERS-2 3.6 12:06:20 10° SE 12:09:40 35° ENE 12:10:47 28° NNE
Nadezhda 4 Rocket 3.8 12:04:10 10° S 12:10:16 88° W 12:16:27 10° N
CZ-4B R/B 3.6 12:07:29 10° SE 12:10:23 26° ENE 12:12:56 12° NNE
Cosmos 2082 Rocket 2.1 12:09:55 48° SSW 12:11:33 84° ESE 12:17:11 10° NNE
Cosmos 2369 3.9 12:08:19 23° NNW 12:11:53 68° ENE 12:17:29 10° SSE
Meteor 1-24 Rocket 4.2 12:09:29 10° S 12:14:59 62° E 12:20:44 10° NNE
Lacrosse 5 rocket 3.6 12:18:45 13° N 12:18:45 13° N 12:19:23 10° NNE
DELTA 2 R/B (1) 4.5 12:19:26 33° SSW 12:19:26 33° SSW 12:23:56 10° SSE
Cosmos 2180 Rocket 4.5 12:13:37 10° NNW 12:19:40 54° W 12:25:37 10° SSW
Cosmos 1892 Rocket 4.4 12:18:18 10° SSE 12:22:29 50° E 12:26:43 10° NNE
ALOS 2.6 12:22:24 10° NNE 12:27:03 65° E 12:31:40 10° S
Cosmos 1697 Rocket 2.6 12:31:55 29° NW 12:34:50 65° WSW 12:40:25 10° S
Abrixas rocket 3.3 12:38:21 32° NE 12:38:21 32° NE 12:40:43 10° E
ISS -1.4 12:41:10 14° N 12:41:10 14° N 12:42:19 10° NNE
COSMOS 2406 4.4 12:41:49 24° NW 12:41:49 24° NW 12:45:27 10° N
FENGYUN 3A 3.6 12:36:20 10° NNE 12:41:49 88° WNW 12:47:14 10° SSW
ATLAS CENTAUR R/B 3.1 12:42:28 10° S 12:46:00 30° ESE 12:49:23 10° NE
ATLAS 3B R/B 2.9 12:44:54 31° W 12:47:26 45° NW 12:53:47 10° NNE
ADEOS 3.4 12:43:11 10° N 12:48:25 74° WNW 12:53:36 10° SSW
Cosmos 1400 Rocket 2.7 12:46:15 10° N 12:50:11 83° ENE 12:54:03 10° S
Cosmos 1300 2.5 12:46:34 10° NNW 12:50:23 72° W 12:54:10 10° S
ADEOS Rocket 3.2 12:45:24 10° SSW 12:50:26 37° W 12:55:34 10° NNW
Meteor 2-5 Rocket 3.9 12:46:37 10° SSW 12:52:05 48° WNW 12:57:42 10° N
Cosmos 1428 Rocket 4.5 12:47:33 10° S 12:53:48 89° E 13:00:01 10° N
Aureole 3 4.1 12:51:39 10° N 12:56:13 78° E 13:02:03 10° S
Cosmos 1980 Rocket 2.1 12:52:41 10° NNW 12:58:18 80° WSW 13:03:53 10° SSE
CZ-4B R/B 3.7 12:57:49 10° N 13:01:55 67° WNW 13:05:48 10° SSW
SL-14 R/B 4.3 13:02:57 27° WNW 13:02:57 27° WNW 13:05:48 10° NNW
Cosmos 2228 3.4 12:59:23 10° NNW 13:03:28 39° W 13:07:33 10° SSW
Cosmos 1726 Rocket 3.6 12:59:18 10° NNW 13:03:40 56° W 13:08:01 10° S
Cosmos 1992 Rocket 4.1 12:59:40 10° NNW 13:04:41 49° WSW 13:09:41 10° S
Cosmos 2026 Rocket 4.0 13:00:41 10° SSW 13:07:01 69° W 13:13:23 10° N
CZ-2C R/B 3.9 13:13:21 10° NNW 13:16:07 17° WNW 13:16:07 17° WNW
Meteor PRIRODA 3.6 13:13:30 10° NNE 13:17:10 86° ESE 13:20:50 10° SSW
H-2A R/B 4.2 13:13:51 10° NNE 13:17:30 40° E 13:21:09 10° S
Meteor 2-10 Rocket 3.8 13:13:02 10° N 13:18:04 70° E 13:23:12 10° SSE
Cosmos 614 Rocket 4.0 13:13:53 10° SSW 13:18:55 55° WNW 13:23:58 10° N
Cosmos 1606 Rocket 4.4 13:16:07 10° NNW 13:19:56 28° W 13:23:45 10° SSW
Cosmos 1484 Rocket 3.7 13:18:01 10° NNW 13:21:13 26° WNW 13:24:22 10° SW
Cosmos 1315 Rocket 3.3 13:19:39 10° N 13:23:47 67° E 13:27:52 10° SSE
Cosmos 1689 Rocket 1.9 13:22:22 10° S 13:25:16 70° WSW 13:28:12 10° NNW
COSMO-SKYMED 1 2.5 13:23:29 10° S 13:27:48 69° WSW 13:32:08 10° NNW
Cosmos 1833 Rocket 4.3 13:29:06 13° WNW 13:30:26 14° NW 13:33:12 10° NNW
Cosmos 2322 Rocket 3.4 13:25:49 10° N 13:31:13 43° ENE 13:36:33 10° SE
Cosmos 2278 4.1 13:26:09 10° NW 13:31:23 39° WSW 13:36:34 10° S
Uosat 12 SS-18 rocket 4.1 13:27:16 10° SSW 13:32:11 86° WNW 13:36:33 10° NNE
SJ-12 4.3 13:31:59 10° N 13:35:51 40° WNW 13:39:40 10° SW
SAR-Lupe-4 4.3 13:32:47 10° SSW 13:35:57 30° W 13:39:10 10° NW
Cosmos 1455 2.4 13:33:57 10° N 13:37:50 76° E 13:41:41 10° S
H-2A R/B 3.2 13:36:37 10° NNE 13:40:54 60° E 13:44:59 10° S
Cosmos 1023 Rocket 4.4 13:37:15 10° SSW 13:42:17 63° WNW 13:47:20 10° NNE
CZ-4B R/B 3.1 13:40:31 10° SW 13:42:38 15° W 13:44:45 10° WNW
ERS-2 4.0 13:41:42 10° WSW 13:43:20 13° W 13:44:58 10° WNW
Meteor 1-31 Rocket 4.2 13:43:32 10° NNW 13:46:23 19° WNW 13:49:12 10° WSW
Meteor 2-19 Rocket 4.5 13:42:08 10° SSW 13:48:06 58° W 13:54:06 10° N
CREW DRAGON DEMO-1 DEB 3.4 13:48:57 10° NW 13:51:54 53° NE 13:54:51 10° ESE
Cosmos 2292 Rocket 2.9 13:49:14 10° SSW 13:52:17 60° W 13:55:57 10° N
Cosmos 1703 3.2 13:48:47 10° S 13:52:39 83° W 13:56:34 10° N
SJ-7 4.3 13:49:29 10° N 13:53:28 79° WNW 13:57:26 10° SSW
Cosmos 1758 Rocket 4.1 13:49:52 10° S 13:54:18 66° E 13:58:46 10° NNE
Cosmos 1190 Rocket 4.2 13:49:27 10° SW 13:54:33 52° WNW 13:59:39 10° N
Cosmos 2082 Rocket 3.8 13:53:19 10° W 13:56:21 15° NW 13:59:25 10° NNW
